Regional Weather Roundup
Issued by NWS

Home | Current Version | Previous Version | Graphics & Text | Print | Product List | Glossary On
Versions: 1 2 3 4 5 6 7 8 9 10 11 12 13 14 15 16 17 18 19 20 21 22 23 24 25 26 27 28 29 30 31 32 33 34 35 36 37 38 39 40 41 42 43 44 45 46 47 48 49 50
000
ASUS43 KOAX 252002
RWRNE

WEATHER ROUNDUP FOR NEBRASKA
NATIONAL WEATHER SERVICE OMAHA NE
300 PM CDT SAT OCT 25 2014

NOTES: SATELLITE DATA IS BEING USED TO AUGMENT CLOUD COVER ABOVE
       12000 FEET.
       "FAIR" INDICATES FEW OR NO CLOUDS BELOW 12,000 FEET WITH NO
       SIGNIFICANT WEATHER AND/OR OBSTRUCTIONS TO VISIBILITY.

  * THESE STATIONS DO NOT REPORT WEATHER SUCH AS RAIN...SNOW OR FOG.

NEZ001>004-019>022-054>056-252100-
NEBRASKA PANHANDLE

CITY           SKY/WX    TMP DP  RH WIND       PRES   REMARKS
SCOTTSBLUFF    SUNNY     74  37  26 SE8       30.05F
ALLIANCE       SUNNY     72  39  30 VRB3      30.06F
CHADRON        SUNNY     69  40  34 NE7       30.04F
KIMBALL        SUNNY     79  30  17 SE10      30.08F
SIDNEY         SUNNY     78  36  21 E7        30.09F
$$

NEZ057>060-069>072-079>082-252100-
SOUTHWEST NEBRASKA

CITY           SKY/WX    TMP DP  RH WIND       PRES   REMARKS
NORTH PLATTE   SUNNY     76  46  34 E10       30.05F
IMPERIAL       SUNNY     79  37  22 VRB6      30.05F
LEXINGTON      SUNNY     76  45  32 E9        30.05F
MCCOOK         SUNNY     81  45  28 SE8       30.04F
OGALLALA       SUNNY     77  37  24 E3        30.06F
$$

NEZ005>010-023>029-035>040-094-252100-
NORTH CENTRAL NEBRASKA

CITY           SKY/WX    TMP DP  RH WIND       PRES   REMARKS
VALENTINE      SUNNY     69  31  24 SE10G16   30.09F
AINSWORTH      SUNNY     67  31  26 SE9       30.10F
BROKEN BOW     SUNNY     73  44  35 E10       30.06F
O`NEILL        SUNNY     70  35  28 E7        30.10F
ORD            SUNNY     70  39  32 E10       30.06F
THEDFORD       SUNNY     73  40  30 SE6       30.08F
$$

NEZ041-046>049-061>064-073>077-083>087-252100-
SOUTH CENTRAL NEBRASKA

CITY           SKY/WX    TMP DP  RH WIND       PRES   REMARKS
GRAND ISLAND   SUNNY     75  43  31 E7        30.07F
AURORA         SUNNY     74  38  28 E9        30.07F
HASTINGS       SUNNY     75  42  30 E8        30.05F
HEBRON         SUNNY     79  43  28 E3        30.04F
HOLDREGE       SUNNY     76  46  34 E10       30.05F
KEARNEY *      SUNNY     75  46  35 E9        30.07F
YORK           SUNNY     72  45  37 E10       30.07F
$$

NEZ011>018-030>034-042>045-252100-
NORTHEAST NEBRASKA

CITY           SKY/WX    TMP DP  RH WIND       PRES   REMARKS
NORFOLK        SUNNY     71  37  28 E7        30.09F
ALBION         SUNNY     70  36  29 E7        30.09F
BLAIR          SUNNY     73  40  30 CALM      30.08F
COLUMBUS *     SUNNY     72  39  30 E12       30.10F
FREMONT        SUNNY     72  40  30 E5        30.08F
TEKAMAH        SUNNY     74  40  29 NE7       30.08F
WAYNE          SUNNY     70  34  26 E6        30.10F
$$

NEZ050>053-065>068-078-088>093-252100-
SOUTHEAST NEBRASKA

CITY           SKY/WX    TMP DP  RH WIND       PRES   REMARKS
LINCOLN        SUNNY     74  45  35 NE10      30.08F
OMAHA EPPLEY   SUNNY     73  42  32 CALM      30.08F
BEATRICE       SUNNY     75  49  39 NE6       30.06S
FALLS CITY     SUNNY     78  47  33 NE6       30.04F
NEBRASKA CITY  SUNNY     74  35  23 E6        30.07F
PLATTSMOUTH    SUNNY     73  37  26 N3        30.07F
$$

NEZ044-045-051>053-067-252100-
OMAHA AREA

CITY           SKY/WX    TMP DP  RH WIND       PRES   REMARKS
OMAHA EPPLEY   SUNNY     73  42  32 CALM      30.08F
BLAIR          SUNNY     73  40  30 CALM      30.08F
FREMONT        SUNNY     72  40  30 E5        30.08F
PLATTSMOUTH    SUNNY     73  37  26 N3        30.07F
WAHOO          FAIR      73  37  26 E5        30.08F
$$



USA.gov is the U.S. government's official web portal to all federal, state and local government web resources and services.